Weather in Bilbao

Spain     43˚15′49″N   2˚56′17″W
temp.,
°C
wind,
m/s
gust,
m/s
humid.,
%
clouds,
%
prec.,
mm/h
press.,
hPa
HPBL,
m
30 november, mon
mon3001:00+10˚ssw1163100 0.0 102133
04:00+10˚ssw1163100 0.0 102235
07:00+9˚ssw1165100 0.0 102333
10:00+11˚ssw116194 0.0 102444
13:00+14˚n116371 0.0 1024498
16:00+13˚n227292 0.0 1024474
19:00+10˚n118851 0.0 1025197
22:00+9˚w118922 0.0 102769
1 december, tue
tue101:00+8˚sw118925 0.0 102768
04:00+7˚ssw118766 0.0 102746
07:00+7˚ssw127781 0.0 102651
10:00+8˚ssw1162100 0.0 102666
13:00+12˚nnw1244100 0.0 1025304
16:00+12˚nnw2357100 0.0 1023487
19:00+10˚wnw1468100 0.0 1022420
22:00+10˚w2775100 0.1 1022561
2 december, wed
wed201:00+10˚n3689100 2.7 1021558
04:00+9˚ne3677100 0.6 1020800
07:00+8˚nne2471100 0.7 1021615
10:00+8˚n3574100 0.3 1021748
13:00+9˚nnw3669100 0.9 10211129
16:00+9˚nnw377397 0.6 10201048
19:00+8˚nw257294 1.1 1021683
22:00+8˚nw2471100 0.2 1021488
3 december, thu
thu301:00+8˚wnw137288 0.3 1020231
04:00+6˚sw227690 0.0 1018110
07:00+6˚ssw227594 0.0 1015100
10:00+6˚ssw237234 0.0 1013150
13:00+11˚ssw235742 0.0 1009475
16:00+11˚sw254899 0.0 1005935
19:00+8˚ssw236286 0.0 1003130
22:00+7˚s256455 0.0 1000166
4 december, fri
fri401:00+9˚sw5156051 0.0 9971047
04:00+7˚wsw168995 7.6 996434
07:00+6˚w398197 8.9 996824
10:00+6˚sw387471 0.7 997835
13:00+9˚w4114756 1.0 9962034
16:00+9˚wnw5104866 0.3 9951923
19:00+6˚w276681 0.4 995738
22:00+4˚sw2784100 4.3 997624